Location: Boiro
(42.6475°N, 8.8834°W)
Time: 11:26:21
(UTC+02:00)

deb Agena D - Pass Details

Date: 10 July 2022
Orbit: 997 x 1025 km, 100.1° (Epoch: 16 August)

Event Time Altitude Azimuth Distance (km) Brightness Sun altitude
Exits shadow 23:46:11 - 94° (E) 3,112 ? -13.7°
Reaches altitude 10° 23:47:30 10° 85° (E) 2,820 ? -13.9°
Maximum altitude 23:50:49 15° 53° (NE) 2,473 ? -14.3°
Drops below altitude 10° 23:54:08 10° 21° (NNE) 2,825 ? -14.7°
Sets 23:57:49 0° 360° (N) 3,779 ? -15.1°
